Time,TemperatureF,DewpointF,PressureIn,WindDirection,WindDirectionDegrees,WindSpeedMPH,WindSpeedGustMPH,Humidity,HourlyPrecipIn,Conditions,Clouds,dailyrainin,SoftwareType,DateUTC
2013-06-05 00:04:00,54.5,38.7,30.09,North,-999,0.0,0.0,55,0.00,,,-99.99,FreeWX-Wi 1.02,2013-06-05 04:04:00,
2013-06-05 00:09:00,54.1,37.4,30.09,North,-999,0.0,0.0,53,0.00,,,-99.99,FreeWX-Wi 1.02,2013-06-05 04:09:00,
2013-06-05 00:14:00,54.0,37.8,30.09,North,-999,0.0,0.0,54,0.00,,,-99.99,FreeWX-Wi 1.02,2013-06-05 04:14:00,
2013-06-05 00:19:00,54.3,39.4,30.09,North,-999,0.0,0.0,57,0.00,,,-99.99,FreeWX-Wi 1.02,2013-06-05 04:19:00,
2013-06-05 00:24:00,54.5,39.2,30.09,North,-999,0.0,0.0,56,0.00,,,-99.99,FreeWX-Wi 1.02,2013-06-05 04:24:00,
2013-06-05 00:29:00,54.5,38.1,30.09,North,-999,0.0,0.0,54,0.00,,,-99.99,FreeWX-Wi 1.02,2013-06-05 04:29:00,
2013-06-05 00:34:00,54.7,38.3,30.09,North,-999,0.0,0.0,54,0.00,,,-99.99,FreeWX-Wi 1.02,2013-06-05 04:34:00,
2013-06-05 00:39:00,54.9,38.5,30.09,North,-999,0.0,0.0,54,0.00,,,-99.99,FreeWX-Wi 1.02,2013-06-05 04:39:00,
2013-06-05 00:44:00,55.4,39.6,30.09,North,-999,0.0,0.0,55,0.00,,,-99.99,FreeWX-Wi 1.02,2013-06-05 04:44:00,
2013-06-05 00:49:00,55.4,39.0,30.09,North,-999,0.0,0.0,54,0.00,,,-99.99,FreeWX-Wi 1.02,2013-06-05 04:49:00,
2013-06-05 00:54:00,55.4,38.1,30.09,North,-999,0.0,0.0,52,0.00,,,-99.99,FreeWX-Wi 1.02,2013-06-05 04:54:00,
2013-06-05 00:59:00,55.6,37.8,30.09,North,-999,0.0,0.0,51,0.00,,,-99.99,FreeWX-Wi 1.02,2013-06-05 04:59:00,
2013-06-05 01:04:00,55.4,37.6,30.09,North,-999,0.0,0.0,51,0.00,,,-99.99,FreeWX-Wi 1.02,2013-06-05 05:04:00,
2013-06-05 01:09:00,55.4,38.1,30.09,North,-999,0.0,0.0,52,0.00,,,-99.99,FreeWX-Wi 1.02,2013-06-05 05:09:00,
2013-06-05 01:14:00,55.8,37.9,30.12,North,-999,0.0,0.0,51,0.00,,,-99.99,FreeWX-Wi 1.02,2013-06-05 05:14:00,
2013-06-05 01:19:00,55.8,35.8,30.12,North,-999,0.0,0.0,47,0.00,,,-99.99,FreeWX-Wi 1.02,2013-06-05 05:19:00,
2013-06-05 01:24:00,55.8,37.4,30.12,North,-999,0.0,0.0,50,0.00,,,-99.99,FreeWX-Wi 1.02,2013-06-05 05:24:00,
2013-06-05 01:29:00,55.0,36.7,30.09,North,-999,0.0,0.0,50,0.00,,,-99.99,FreeWX-Wi 1.02,2013-06-05 05:29:00,
2013-06-05 01:34:00,54.7,36.3,30.09,North,-999,0.0,0.0,50,0.00,,,-99.99,FreeWX-Wi 1.02,2013-06-05 05:34:00,
2013-06-05 01:39:00,54.7,34.3,30.09,North,-999,0.0,0.0,46,0.00,,,-99.99,FreeWX-Wi 1.02,2013-06-05 05:39:00,
2013-06-05 01:44:00,54.9,35.1,30.09,North,-999,0.0,0.0,47,0.00,,,-99.99,FreeWX-Wi 1.02,2013-06-05 05:44:00,
2013-06-05 01:49:00,55.4,33.3,30.09,North,-999,0.0,0.0,43,0.00,,,-99.99,FreeWX-Wi 1.02,2013-06-05 05:49:00,
2013-06-05 01:54:00,55.8,32.4,30.09,North,-999,0.0,0.0,41,0.00,,,-99.99,FreeWX-Wi 1.02,2013-06-05 05:54:00,
2013-06-05 01:59:00,55.9,34.3,30.09,North,-999,0.0,0.0,44,0.00,,,-99.99,FreeWX-Wi 1.02,2013-06-05 05:59:00,
2013-06-05 02:04:00,55.9,33.3,30.09,North,-999,0.0,0.0,42,0.00,,,-99.99,FreeWX-Wi 1.02,2013-06-05 06:04:00,
2013-06-05 02:09:00,55.9,32.0,30.09,North,-999,0.0,0.0,40,0.00,,,-99.99,FreeWX-Wi 1.02,2013-06-05 06:09:00,
2013-06-05 02:14:00,55.9,26.6,30.12,North,-999,0.0,0.0,32,0.00,,,-99.99,FreeWX-Wi 1.02,2013-06-05 06:14:00,
2013-06-05 02:19:00,56.1,32.2,30.12,North,-999,0.0,0.0,40,0.00,,,-99.99,FreeWX-Wi 1.02,2013-06-05 06:19:00,
2013-06-05 02:24:00,56.1,28.8,30.12,North,-999,0.0,0.0,35,0.00,,,-99.99,FreeWX-Wi 1.02,2013-06-05 06:24:00,
2013-06-05 02:29:00,56.1,30.2,30.12,North,-999,0.0,0.0,37,0.00,,,-99.99,FreeWX-Wi 1.02,2013-06-05 06:29:00,
2013-06-05 02:34:00,56.1,25.2,30.12,North,-999,0.0,0.0,30,0.00,,,-99.99,FreeWX-Wi 1.02,2013-06-05 06:34:00,
2013-06-05 02:39:00,56.1,25.2,30.12,North,-999,0.0,0.0,30,0.00,,,-99.99,FreeWX-Wi 1.02,2013-06-05 06:39:00,
2013-06-05 02:44:00,56.1,26.6,30.12,North,-999,0.0,0.0,32,0.00,,,-99.99,FreeWX-Wi 1.02,2013-06-05 06:44:00,
2013-06-05 02:49:00,56.1,28.8,30.12,North,-999,0.0,0.0,35,0.00,,,-99.99,FreeWX-Wi 1.02,2013-06-05 06:49:00,
2013-06-05 02:54:00,56.1,30.2,30.12,North,-999,0.0,0.0,37,0.00,,,-99.99,FreeWX-Wi 1.02,2013-06-05 06:54:00,
2013-06-05 02:59:00,56.1,25.2,30.12,North,-999,0.0,0.0,30,0.00,,,-99.99,FreeWX-Wi 1.02,2013-06-05 06:59:00,
2013-06-05 03:04:00,56.1,26.6,30.12,North,-999,0.0,0.0,32,0.00,,,-99.99,FreeWX-Wi 1.02,2013-06-05 07:04:00,
2013-06-05 03:09:00,56.1,32.2,30.12,North,-999,0.0,0.0,40,0.00,,,-99.99,FreeWX-Wi 1.02,2013-06-05 07:09:00,
2013-06-05 03:14:00,55.9,26.6,30.12,North,-999,0.0,0.0,32,0.00,,,-99.99,FreeWX-Wi 1.02,2013-06-05 07:14:00,
2013-06-05 03:19:00,55.8,26.4,30.12,North,-999,0.0,0.0,32,0.00,,,-99.99,FreeWX-Wi 1.02,2013-06-05 07:19:00,
2013-06-05 03:24:00,55.8,24.8,30.12,North,-999,0.0,0.0,30,0.00,,,-99.99,FreeWX-Wi 1.02,2013-06-05 07:24:00,
2013-06-05 03:29:00,55.8,26.4,30.12,North,-999,0.0,0.0,32,0.00,,,-99.99,FreeWX-Wi 1.02,2013-06-05 07:29:00,
2013-06-05 03:34:00,55.8,26.4,30.12,North,-999,0.0,0.0,32,0.00,,,-99.99,FreeWX-Wi 1.02,2013-06-05 07:34:00,
2013-06-05 03:39:00,55.9,25.0,30.12,North,-999,0.0,0.0,30,0.00,,,-99.99,FreeWX-Wi 1.02,2013-06-05 07:39:00,
2013-06-05 03:44:00,55.9,25.0,30.12,North,-999,0.0,0.0,30,0.00,,,-99.99,FreeWX-Wi 1.02,2013-06-05 07:44:00,
2013-06-05 03:49:00,55.9,25.0,30.12,North,-999,0.0,0.0,30,0.00,,,-99.99,FreeWX-Wi 1.02,2013-06-05 07:49:00,
2013-06-05 03:54:00,56.1,25.2,30.12,North,-999,0.0,0.0,30,0.00,,,-99.99,FreeWX-Wi 1.02,2013-06-05 07:54:00,
2013-06-05 03:59:00,56.1,25.2,30.12,North,-999,0.0,0.0,30,0.00,,,-99.99,FreeWX-Wi 1.02,2013-06-05 07:59:00,
2013-06-05 04:04:00,55.9,25.0,30.12,North,-999,0.0,0.0,30,0.00,,,-99.99,FreeWX-Wi 1.02,2013-06-05 08:04:00,
2013-06-05 04:09:00,55.6,26.2,30.12,North,-999,0.0,0.0,32,0.00,,,-99.99,FreeWX-Wi 1.02,2013-06-05 08:09:00,
2013-06-05 04:14:00,55.4,28.2,30.12,North,-999,0.0,0.0,35,0.00,,,-99.99,FreeWX-Wi 1.02,2013-06-05 08:14:00,
2013-06-05 04:19:00,55.0,26.4,30.12,North,-999,0.0,0.0,33,0.00,,,-99.99,FreeWX-Wi 1.02,2013-06-05 08:19:00,
2013-06-05 04:24:00,54.9,26.2,30.12,North,-999,0.0,0.0,33,0.00,,,-99.99,FreeWX-Wi 1.02,2013-06-05 08:24:00,
2013-06-05 04:29:00,54.7,27.5,30.15,North,-999,0.0,0.0,35,0.00,,,-99.99,FreeWX-Wi 1.02,2013-06-05 08:29:00,
2013-06-05 04:34:00,54.7,27.5,30.15,North,-999,0.0,0.0,35,0.00,,,-99.99,FreeWX-Wi 1.02,2013-06-05 08:34:00,
2013-06-05 04:39:00,54.7,30.9,30.15,North,-999,0.0,0.0,40,0.00,,,-99.99,FreeWX-Wi 1.02,2013-06-05 08:39:00,
2013-06-05 04:44:00,54.3,31.1,30.15,North,-999,0.0,0.0,41,0.00,,,-99.99,FreeWX-Wi 1.02,2013-06-05 08:44:00,
2013-06-05 04:49:00,54.0,30.7,30.15,North,-999,0.0,0.0,41,0.00,,,-99.99,FreeWX-Wi 1.02,2013-06-05 08:49:00,
2013-06-05 04:54:00,53.8,31.3,30.15,North,-999,0.0,0.0,42,0.00,,,-99.99,FreeWX-Wi 1.02,2013-06-05 08:54:00,
2013-06-05 04:59:00,53.6,31.1,30.15,North,-999,0.0,0.0,42,0.00,,,-99.99,FreeWX-Wi 1.02,2013-06-05 08:59:00,
2013-06-05 05:04:00,53.6,33.8,30.15,North,-999,0.0,0.0,47,0.00,,,-99.99,FreeWX-Wi 1.02,2013-06-05 09:04:00,
2013-06-05 05:09:00,53.2,34.0,30.15,North,-999,0.0,0.0,48,0.00,,,-99.99,FreeWX-Wi 1.02,2013-06-05 09:09:00,
2013-06-05 05:14:00,52.7,34.2,30.15,North,-999,0.0,0.0,49,0.00,,,-99.99,FreeWX-Wi 1.02,2013-06-05 09:14:00,
2013-06-05 05:19:00,52.2,33.6,30.15,North,-999,0.0,0.0,49,0.00,,,-99.99,FreeWX-Wi 1.02,2013-06-05 09:19:00,
2013-06-05 05:24:00,52.0,34.0,30.15,North,-999,0.0,0.0,50,0.00,,,-99.99,FreeWX-Wi 1.02,2013-06-05 09:24:00,
2013-06-05 05:29:00,52.3,34.7,30.15,North,-999,0.0,0.0,51,0.00,,,-99.99,FreeWX-Wi 1.02,2013-06-05 09:29:00,
2013-06-05 05:34:00,52.3,35.8,30.15,North,-999,0.0,0.0,53,0.00,,,-99.99,FreeWX-Wi 1.02,2013-06-05 09:34:00,
2013-06-05 05:39:00,52.2,35.6,30.15,North,-999,0.0,0.0,53,0.00,,,-99.99,FreeWX-Wi 1.02,2013-06-05 09:39:00,
2013-06-05 05:44:00,52.0,35.4,30.15,North,-999,0.0,0.0,53,0.00,,,-99.99,FreeWX-Wi 1.02,2013-06-05 09:44:00,
2013-06-05 05:49:00,51.8,35.2,30.15,North,-999,0.0,0.0,53,0.00,,,-99.99,FreeWX-Wi 1.02,2013-06-05 09:49:00,
2013-06-05 05:54:00,51.6,35.6,30.15,North,-999,0.0,0.0,54,0.00,,,-99.99,FreeWX-Wi 1.02,2013-06-05 09:54:00,
2013-06-05 05:59:00,51.6,35.6,30.15,North,-999,0.0,0.0,54,0.00,,,-99.99,FreeWX-Wi 1.02,2013-06-05 09:59:00,
2013-06-05 06:04:00,51.6,35.6,30.15,North,-999,0.0,0.0,54,0.00,,,-99.99,FreeWX-Wi 1.02,2013-06-05 10:04:00,
2013-06-05 06:09:00,51.6,35.6,30.15,North,-999,0.0,0.0,54,0.00,,,-99.99,FreeWX-Wi 1.02,2013-06-05 10:09:00,
2013-06-05 06:14:00,51.8,35.2,30.18,North,-999,0.0,0.0,53,0.00,,,-99.99,FreeWX-Wi 1.02,2013-06-05 10:14:00,
2013-06-05 06:19:00,52.2,35.6,30.18,North,-999,0.0,0.0,53,0.00,,,-99.99,FreeWX-Wi 1.02,2013-06-05 10:19:00,
2013-06-05 06:24:00,52.3,36.1,30.18,North,-999,0.0,0.0,54,0.00,,,-99.99,FreeWX-Wi 1.02,2013-06-05 10:24:00,
2013-06-05 06:29:00,52.3,36.1,30.18,North,-999,0.0,0.0,54,0.00,,,-99.99,FreeWX-Wi 1.02,2013-06-05 10:29:00,
2013-06-05 06:34:00,52.3,36.1,30.18,North,-999,0.0,0.0,54,0.00,,,-99.99,FreeWX-Wi 1.02,2013-06-05 10:34:00,
2013-06-05 06:39:00,52.5,36.3,30.18,North,-999,0.0,0.0,54,0.00,,,-99.99,FreeWX-Wi 1.02,2013-06-05 10:39:00,
2013-06-05 06:44:00,52.9,37.6,30.18,North,-999,0.0,0.0,56,0.00,,,-99.99,FreeWX-Wi 1.02,2013-06-05 10:44:00,
2013-06-05 06:49:00,53.1,37.8,30.18,North,-999,0.0,0.0,56,0.00,,,-99.99,FreeWX-Wi 1.02,2013-06-05 10:49:00,
2013-06-05 06:54:00,53.6,38.3,30.18,North,-999,0.0,0.0,56,0.00,,,-99.99,FreeWX-Wi 1.02,2013-06-05 10:54:00,
2013-06-05 06:59:00,54.3,38.5,30.18,North,-999,0.0,0.0,55,0.00,,,-99.99,FreeWX-Wi 1.02,2013-06-05 10:59:00,
2013-06-05 07:04:00,55.0,37.8,30.18,North,-999,0.0,0.0,52,0.00,,,-99.99,FreeWX-Wi 1.02,2013-06-05 11:04:00,
2013-06-05 07:09:00,55.6,37.8,30.18,North,-999,0.0,0.0,51,0.00,,,-99.99,FreeWX-Wi 1.02,2013-06-05 11:09:00,
2013-06-05 07:14:00,56.1,37.8,30.18,North,-999,0.0,0.0,50,0.00,,,-99.99,FreeWX-Wi 1.02,2013-06-05 11:14:00,
2013-06-05 07:19:00,56.3,37.9,30.18,North,-999,0.0,0.0,50,0.00,,,-99.99,FreeWX-Wi 1.02,2013-06-05 11:19:00,
2013-06-05 07:24:00,57.0,37.6,30.18,North,-999,0.0,0.0,48,0.00,,,-99.99,FreeWX-Wi 1.02,2013-06-05 11:24:00,
2013-06-05 07:29:00,57.6,35.2,30.18,North,-999,0.0,0.0,43,0.00,,,-99.99,FreeWX-Wi 1.02,2013-06-05 11:29:00,
2013-06-05 07:34:00,58.3,36.0,30.18,North,-999,0.0,0.0,43,0.00,,,-99.99,FreeWX-Wi 1.02,2013-06-05 11:34:00,
2013-06-05 07:39:00,59.0,35.4,30.18,North,-999,0.0,0.0,41,0.00,,,-99.99,FreeWX-Wi 1.02,2013-06-05 11:39:00,
2013-06-05 07:44:00,60.1,35.6,30.18,North,-999,0.0,0.0,40,0.00,,,-99.99,FreeWX-Wi 1.02,2013-06-05 11:44:00,
2013-06-05 07:49:00,60.4,37.8,30.18,North,-999,0.0,0.0,43,0.00,,,-99.99,FreeWX-Wi 1.02,2013-06-05 11:49:00,
2013-06-05 07:54:00,60.6,36.1,30.18,North,-999,0.0,0.0,40,0.00,,,-99.99,FreeWX-Wi 1.02,2013-06-05 11:54:00,
2013-06-05 07:59:00,61.0,28.6,30.21,North,-999,0.0,0.0,29,0.00,,,-99.99,FreeWX-Wi 1.02,2013-06-05 11:59:00,
2013-06-05 08:04:00,61.5,36.3,30.21,North,-999,0.0,0.0,39,0.00,,,-99.99,FreeWX-Wi 1.02,2013-06-05 12:04:00,
2013-06-05 08:09:00,62.1,29.5,30.21,North,-999,0.0,0.0,29,0.00,,,-99.99,FreeWX-Wi 1.02,2013-06-05 12:09:00,
2013-06-05 08:14:00,62.6,29.1,30.21,North,-999,0.0,0.0,28,0.00,,,-99.99,FreeWX-Wi 1.02,2013-06-05 12:14:00,
2013-06-05 08:19:00,63.0,24.6,30.21,North,-999,0.0,0.0,23,0.00,,,-99.99,FreeWX-Wi 1.02,2013-06-05 12:19:00,
2013-06-05 08:24:00,63.5,22.8,30.21,North,-999,0.0,0.0,21,0.00,,,-99.99,FreeWX-Wi 1.02,2013-06-05 12:24:00,
2013-06-05 08:29:00,63.9,23.2,30.21,North,-999,0.0,0.0,21,0.00,,,-99.99,FreeWX-Wi 1.02,2013-06-05 12:29:00,
2013-06-05 08:34:00,64.6,22.6,30.21,North,-999,0.0,0.0,20,0.00,,,-99.99,FreeWX-Wi 1.02,2013-06-05 12:34:00,
2013-06-05 08:39:00,65.1,23.0,30.21,North,-999,0.0,0.0,20,0.00,,,-99.99,FreeWX-Wi 1.02,2013-06-05 12:39:00,
2013-06-05 08:44:00,65.5,23.4,30.21,North,-999,0.0,0.0,20,0.00,,,-99.99,FreeWX-Wi 1.02,2013-06-05 12:44:00,
2013-06-05 08:49:00,65.5,23.4,30.21,North,-999,0.0,0.0,20,0.00,,,-99.99,FreeWX-Wi 1.02,2013-06-05 12:49:00,
2013-06-05 08:54:00,65.7,23.5,30.21,North,-999,0.0,0.0,20,0.00,,,-99.99,FreeWX-Wi 1.02,2013-06-05 12:54:00,
2013-06-05 08:59:00,66.0,23.7,30.21,North,-999,0.0,0.0,20,0.00,,,-99.99,FreeWX-Wi 1.02,2013-06-05 12:59:00,
2013-06-05 09:04:00,66.2,23.9,30.21,North,-999,0.0,0.0,20,0.00,,,-99.99,FreeWX-Wi 1.02,2013-06-05 13:04:00,
2013-06-05 09:09:00,66.6,24.3,30.21,North,-999,0.0,0.0,20,0.00,,,-99.99,FreeWX-Wi 1.02,2013-06-05 13:09:00,
2013-06-05 09:14:00,66.7,23.2,30.21,North,-999,0.0,0.0,19,0.00,,,-99.99,FreeWX-Wi 1.02,2013-06-05 13:14:00,
2013-06-05 09:19:00,66.9,23.4,30.21,North,-999,0.0,0.0,19,0.00,,,-99.99,FreeWX-Wi 1.02,2013-06-05 13:19:00,
2013-06-05 09:24:00,67.3,23.5,30.21,North,-999,0.0,0.0,19,0.00,,,-99.99,FreeWX-Wi 1.02,2013-06-05 13:24:00,
2013-06-05 09:30:00,67.3,23.5,30.21,North,-999,0.0,3.6,19,0.00,,,-99.99,FreeWX-Wi 1.02,2013-06-05 13:30:00,
2013-06-05 09:35:00,67.5,23.7,30.21,North,-999,0.0,0.0,19,0.00,,,-99.99,FreeWX-Wi 1.02,2013-06-05 13:35:00,
2013-06-05 09:40:00,67.3,23.5,30.21,North,-999,0.0,2.7,19,0.00,,,-99.99,FreeWX-Wi 1.02,2013-06-05 13:40:00,
2013-06-05 09:45:00,67.5,23.7,30.21,North,-999,0.0,0.0,19,0.00,,,-99.99,FreeWX-Wi 1.02,2013-06-05 13:45:00,
2013-06-05 09:50:00,67.5,23.7,30.21,North,-999,0.0,2.2,19,0.00,,,-99.99,FreeWX-Wi 1.02,2013-06-05 13:50:00,
2013-06-05 09:55:00,67.5,23.7,30.21,North,-999,0.0,3.6,19,0.00,,,-99.99,FreeWX-Wi 1.02,2013-06-05 13:55:00,
2013-06-05 10:00:00,67.5,23.7,30.21,North,-999,0.0,4.0,19,0.00,,,-99.99,FreeWX-Wi 1.02,2013-06-05 14:00:00,
2013-06-05 10:05:00,67.3,23.5,30.21,North,-999,0.0,2.7,19,0.00,,,-99.99,FreeWX-Wi 1.02,2013-06-05 14:05:00,
2013-06-05 10:10:00,67.3,23.5,30.21,North,-999,0.0,3.1,19,0.00,,,-99.99,FreeWX-Wi 1.02,2013-06-05 14:10:00,
2013-06-05 10:15:00,67.5,23.7,30.21,North,-999,0.0,0.0,19,0.00,,,-99.99,FreeWX-Wi 1.02,2013-06-05 14:15:00,
2013-06-05 10:20:00,67.5,23.7,30.21,North,-999,0.0,0.0,19,0.00,,,-99.99,FreeWX-Wi 1.02,2013-06-05 14:20:00,
2013-06-05 10:25:00,67.6,23.9,30.21,North,-999,0.0,4.0,19,0.00,,,-99.99,FreeWX-Wi 1.02,2013-06-05 14:25:00,
2013-06-05 10:30:00,67.6,23.9,30.21,North,-999,0.0,3.6,19,0.00,,,-99.99,FreeWX-Wi 1.02,2013-06-05 14:30:00,
2013-06-05 10:35:00,67.8,24.1,30.21,North,-999,0.0,3.6,19,0.00,,,-99.99,FreeWX-Wi 1.02,2013-06-05 14:35:00,
2013-06-05 10:40:00,68.0,24.3,30.21,North,-999,0.0,3.1,19,0.00,,,-99.99,FreeWX-Wi 1.02,2013-06-05 14:40:00,
2013-06-05 10:45:00,68.2,24.4,30.21,North,-999,0.0,3.1,19,0.00,,,-99.99,FreeWX-Wi 1.02,2013-06-05 14:45:00,
2013-06-05 10:50:00,68.5,24.6,30.21,ESE,118,1.0,3.6,19,0.00,,,-99.99,FreeWX-Wi 1.02,2013-06-05 14:50:00,
2013-06-05 10:55:00,68.5,24.6,30.21,North,-999,0.0,3.6,19,0.00,,,-99.99,FreeWX-Wi 1.02,2013-06-05 14:55:00,
2013-06-05 11:00:00,68.5,24.6,30.21,North,-999,0.0,0.0,19,0.00,,,-99.99,FreeWX-Wi 1.02,2013-06-05 15:00:00,
2013-06-05 11:05:00,68.4,24.4,30.21,North,-999,0.0,0.0,19,0.00,,,-99.99,FreeWX-Wi 1.02,2013-06-05 15:05:00,
2013-06-05 11:10:00,68.5,24.6,30.21,North,-999,0.0,3.1,19,0.00,,,-99.99,FreeWX-Wi 1.02,2013-06-05 15:10:00,
2013-06-05 11:15:00,68.5,24.6,30.21,North,-999,0.0,3.1,19,0.00,,,-99.99,FreeWX-Wi 1.02,2013-06-05 15:15:00,
2013-06-05 11:20:00,68.5,24.6,30.21,North,-999,0.0,3.6,19,0.00,,,-99.99,FreeWX-Wi 1.02,2013-06-05 15:20:00,
2013-06-05 11:25:00,68.5,24.6,30.21,North,-999,0.0,4.0,19,0.00,,,-99.99,FreeWX-Wi 1.02,2013-06-05 15:25:00,
2013-06-05 11:30:00,68.0,24.3,30.21,North,-999,0.0,3.1,19,0.00,,,-99.99,FreeWX-Wi 1.02,2013-06-05 15:30:00,
2013-06-05 11:35:00,68.2,24.4,30.21,North,-999,0.0,3.6,19,0.00,,,-99.99,FreeWX-Wi 1.02,2013-06-05 15:35:00,
2013-06-05 11:40:00,68.4,24.4,30.21,North,-999,0.0,0.0,19,0.00,,,-99.99,FreeWX-Wi 1.02,2013-06-05 15:40:00,
2013-06-05 11:45:00,68.7,24.8,30.21,ESE,110,1.0,4.0,19,0.00,,,-99.99,FreeWX-Wi 1.02,2013-06-05 15:45:00,
2013-06-05 11:50:00,68.7,24.8,30.21,ESE,113,1.0,3.1,19,0.00,,,-99.99,FreeWX-Wi 1.02,2013-06-05 15:50:00,
2013-06-05 11:55:00,70.5,25.0,30.21,North,-999,0.0,3.1,18,0.00,,,-99.99,FreeWX-Wi 1.02,2013-06-05 15:55:00,
2013-06-05 12:00:00,70.0,24.6,30.18,ESE,107,1.0,3.6,18,0.00,,,-99.99,FreeWX-Wi 1.02,2013-06-05 16:00:00,
2013-06-05 12:05:00,69.4,25.3,30.18,ESE,102,1.0,3.6,19,0.00,,,-99.99,FreeWX-Wi 1.02,2013-06-05 16:05:00,
2013-06-05 12:10:00,69.1,25.2,30.18,East,92,1.0,0.0,19,0.00,,,-99.99,FreeWX-Wi 1.02,2013-06-05 16:10:00,
2013-06-05 12:15:00,69.4,25.3,30.18,North,-999,0.0,3.6,19,0.00,,,-99.99,FreeWX-Wi 1.02,2013-06-05 16:15:00,
2013-06-05 12:20:00,69.3,25.2,30.18,North,-999,0.0,0.0,19,0.00,,,-99.99,FreeWX-Wi 1.02,2013-06-05 16:20:00,
2013-06-05 12:25:00,69.3,25.2,30.18,North,-999,0.0,0.0,19,0.00,,,-99.99,FreeWX-Wi 1.02,2013-06-05 16:25:00,
2013-06-05 12:30:00,69.1,25.2,30.18,North,-999,0.0,4.0,19,0.00,,,-99.99,FreeWX-Wi 1.02,2013-06-05 16:30:00,
2013-06-05 12:35:00,68.9,25.0,30.18,North,-999,0.0,3.1,19,0.00,,,-99.99,FreeWX-Wi 1.02,2013-06-05 16:35:00,
2013-06-05 12:40:00,69.1,25.2,30.18,North,-999,0.0,0.0,19,0.00,,,-99.99,FreeWX-Wi 1.02,2013-06-05 16:40:00,
2013-06-05 12:45:00,69.3,25.2,30.18,North,-999,0.0,4.0,19,0.00,,,-99.99,FreeWX-Wi 1.02,2013-06-05 16:45:00,
2013-06-05 12:50:00,69.4,25.3,30.18,North,-999,0.0,3.1,19,0.00,,,-99.99,FreeWX-Wi 1.02,2013-06-05 16:50:00,
2013-06-05 12:55:00,68.9,25.0,30.18,North,-999,0.0,3.6,19,0.00,,,-99.99,FreeWX-Wi 1.02,2013-06-05 16:55:00,
2013-06-05 13:00:00,68.9,25.0,30.18,North,-999,0.0,3.6,19,0.00,,,-99.99,FreeWX-Wi 1.02,2013-06-05 17:00:00,
2013-06-05 13:05:00,68.7,24.8,30.18,East,92,1.0,2.7,19,0.00,,,-99.99,FreeWX-Wi 1.02,2013-06-05 17:05:00,
2013-06-05 13:10:00,68.9,25.0,30.18,East,96,1.0,0.0,19,0.00,,,-99.99,FreeWX-Wi 1.02,2013-06-05 17:10:00,
2013-06-05 13:15:00,68.9,25.0,30.18,North,-999,0.0,3.1,19,0.00,,,-99.99,FreeWX-Wi 1.02,2013-06-05 17:15:00,
2013-06-05 13:20:00,68.7,24.8,30.18,North,-999,0.0,3.6,19,0.00,,,-99.99,FreeWX-Wi 1.02,2013-06-05 17:20:00,
2013-06-05 13:25:00,68.5,24.6,30.18,North,-999,0.0,0.0,19,0.00,,,-99.99,FreeWX-Wi 1.02,2013-06-05 17:25:00,
2013-06-05 13:30:00,68.7,24.8,30.18,North,-999,0.0,3.6,19,0.00,,,-99.99,FreeWX-Wi 1.02,2013-06-05 17:30:00,
2013-06-05 13:35:00,68.5,24.6,30.18,ESE,111,1.0,4.0,19,0.00,,,-99.99,FreeWX-Wi 1.02,2013-06-05 17:35:00,
2013-06-05 13:40:00,68.7,24.8,30.18,ESE,113,1.0,2.2,19,0.00,,,-99.99,FreeWX-Wi 1.02,2013-06-05 17:40:00,
2013-06-05 13:45:00,68.7,24.8,30.18,North,-999,0.0,3.1,19,0.00,,,-99.99,FreeWX-Wi 1.02,2013-06-05 17:45:00,
2013-06-05 13:50:00,68.7,24.8,30.18,North,-999,0.0,2.7,19,0.00,,,-99.99,FreeWX-Wi 1.02,2013-06-05 17:50:00,
2013-06-05 13:55:00,68.7,24.8,30.18,East,96,1.0,4.0,19,0.00,,,-99.99,FreeWX-Wi 1.02,2013-06-05 17:55:00,
2013-06-05 14:00:00,68.7,24.8,30.18,North,-999,0.0,3.1,19,0.00,,,-99.99,FreeWX-Wi 1.02,2013-06-05 18:00:00,
2013-06-05 14:05:00,68.9,25.0,30.18,North,-999,0.0,3.1,19,0.00,,,-99.99,FreeWX-Wi 1.02,2013-06-05 18:05:00,
2013-06-05 14:10:00,68.7,24.8,30.18,North,-999,0.0,0.0,19,0.00,,,-99.99,FreeWX-Wi 1.02,2013-06-05 18:10:00,
2013-06-05 14:15:00,68.5,24.6,30.18,North,-999,0.0,0.0,19,0.00,,,-99.99,FreeWX-Wi 1.02,2013-06-05 18:15:00,
2013-06-05 14:20:00,68.7,24.8,30.18,North,-999,0.0,3.1,19,0.00,,,-99.99,FreeWX-Wi 1.02,2013-06-05 18:20:00,
2013-06-05 14:25:00,68.9,25.0,30.18,North,-999,0.0,3.6,19,0.00,,,-99.99,FreeWX-Wi 1.02,2013-06-05 18:25:00,
2013-06-05 14:30:00,68.7,24.8,30.15,North,-999,0.0,3.1,19,0.00,,,-99.99,FreeWX-Wi 1.02,2013-06-05 18:30:00,
2013-06-05 14:35:00,68.9,25.0,30.15,North,-999,0.0,2.7,19,0.00,,,-99.99,FreeWX-Wi 1.02,2013-06-05 18:35:00,
2013-06-05 14:40:00,68.9,25.0,30.15,East,94,1.0,4.0,19,0.00,,,-99.99,FreeWX-Wi 1.02,2013-06-05 18:40:00,
2013-06-05 14:45:00,69.1,25.2,30.15,East,91,1.0,3.1,19,0.00,,,-99.99,FreeWX-Wi 1.02,2013-06-05 18:45:00,
2013-06-05 14:50:00,69.1,25.2,30.15,North,-999,0.0,0.0,19,0.00,,,-99.99,FreeWX-Wi 1.02,2013-06-05 18:50:00,
2013-06-05 14:55:00,69.1,25.2,30.15,North,-999,0.0,2.7,19,0.00,,,-99.99,FreeWX-Wi 1.02,2013-06-05 18:55:00,
2013-06-05 15:00:00,69.1,25.2,30.15,North,-999,0.0,3.6,19,0.00,,,-99.99,FreeWX-Wi 1.02,2013-06-05 19:00:00,
2013-06-05 15:05:00,68.9,25.0,30.15,North,-999,0.0,3.6,19,0.00,,,-99.99,FreeWX-Wi 1.02,2013-06-05 19:05:00,
2013-06-05 15:10:00,68.9,25.0,30.15,North,-999,0.0,0.0,19,0.00,,,-99.99,FreeWX-Wi 1.02,2013-06-05 19:10:00,
2013-06-05 15:15:00,69.1,25.2,30.15,North,-999,0.0,0.0,19,0.00,,,-99.99,FreeWX-Wi 1.02,2013-06-05 19:15:00,
2013-06-05 15:20:00,69.1,25.2,30.15,North,-999,0.0,0.0,19,0.00,,,-99.99,FreeWX-Wi 1.02,2013-06-05 19:20:00,
2013-06-05 15:25:00,69.4,25.3,30.15,North,-999,0.0,2.7,19,0.00,,,-99.99,FreeWX-Wi 1.02,2013-06-05 19:25:00,
2013-06-05 15:30:00,69.4,25.3,30.15,North,-999,0.0,2.7,19,0.00,,,-99.99,FreeWX-Wi 1.02,2013-06-05 19:30:00,
2013-06-05 15:35:00,69.1,25.2,30.15,North,-999,0.0,0.0,19,0.00,,,-99.99,FreeWX-Wi 1.02,2013-06-05 19:35:00,
2013-06-05 15:40:00,68.9,25.0,30.15,North,-999,0.0,3.6,19,0.00,,,-99.99,FreeWX-Wi 1.02,2013-06-05 19:40:00,
2013-06-05 15:45:00,68.7,24.8,30.12,North,-999,0.0,4.9,19,0.00,,,-99.99,FreeWX-Wi 1.02,2013-06-05 19:45:00,
2013-06-05 15:50:00,68.4,24.4,30.12,North,-999,0.0,2.7,19,0.00,,,-99.99,FreeWX-Wi 1.02,2013-06-05 19:50:00,
2013-06-05 15:55:00,68.2,24.4,30.12,North,-999,0.0,0.0,19,0.00,,,-99.99,FreeWX-Wi 1.02,2013-06-05 19:55:00,
2013-06-05 16:00:00,68.0,24.3,30.12,North,-999,0.0,0.0,19,0.00,,,-99.99,FreeWX-Wi 1.02,2013-06-05 20:00:00,
2013-06-05 16:05:00,68.0,24.3,30.12,North,-999,0.0,0.0,19,0.00,,,-99.99,FreeWX-Wi 1.02,2013-06-05 20:05:00,
2013-06-05 16:10:00,68.0,24.3,30.12,North,-999,0.0,0.0,19,0.00,,,-99.99,FreeWX-Wi 1.02,2013-06-05 20:10:00,
2013-06-05 16:15:00,67.8,24.1,30.12,North,-999,0.0,0.0,19,0.00,,,-99.99,FreeWX-Wi 1.02,2013-06-05 20:15:00,
2013-06-05 16:20:00,67.8,24.1,30.12,North,-999,0.0,4.0,19,0.00,,,-99.99,FreeWX-Wi 1.02,2013-06-05 20:20:00,
2013-06-05 16:25:00,67.8,24.1,30.12,North,-999,0.0,3.6,19,0.00,,,-99.99,FreeWX-Wi 1.02,2013-06-05 20:25:00,
2013-06-05 16:30:00,67.6,23.9,30.12,North,-999,0.0,3.1,19,0.00,,,-99.99,FreeWX-Wi 1.02,2013-06-05 20:30:00,
2013-06-05 16:35:00,67.5,23.7,30.12,North,-999,0.0,0.0,19,0.00,,,-99.99,FreeWX-Wi 1.02,2013-06-05 20:35:00,
2013-06-05 16:40:00,67.3,23.5,30.12,North,-999,0.0,2.7,19,0.00,,,-99.99,FreeWX-Wi 1.02,2013-06-05 20:40:00,
2013-06-05 16:45:00,67.1,23.5,30.15,North,-999,0.0,0.0,19,0.00,,,-99.99,FreeWX-Wi 1.02,2013-06-05 20:45:00,
2013-06-05 16:50:00,67.1,23.5,30.15,North,-999,0.0,0.0,19,0.00,,,-99.99,FreeWX-Wi 1.02,2013-06-05 20:50:00,
2013-06-05 16:55:00,67.1,23.5,30.15,North,-999,0.0,3.1,19,0.00,,,-99.99,FreeWX-Wi 1.02,2013-06-05 20:55:00,
2013-06-05 17:00:00,67.1,23.5,30.15,North,-999,0.0,2.7,19,0.00,,,-99.99,FreeWX-Wi 1.02,2013-06-05 21:00:00,
2013-06-05 17:05:00,66.9,23.4,30.15,North,-999,0.0,2.7,19,0.00,,,-99.99,FreeWX-Wi 1.02,2013-06-05 21:05:00,
2013-06-05 17:10:00,66.9,23.4,30.15,North,-999,0.0,0.0,19,0.00,,,-99.99,FreeWX-Wi 1.02,2013-06-05 21:10:00,
2013-06-05 17:15:00,66.9,23.4,30.15,North,-999,0.0,0.0,19,0.00,,,-99.99,FreeWX-Wi 1.02,2013-06-05 21:15:00,
2013-06-05 17:20:00,66.7,23.2,30.15,North,-999,0.0,0.0,19,0.00,,,-99.99,FreeWX-Wi 1.02,2013-06-05 21:20:00,
2013-06-05 17:25:00,66.7,23.2,30.15,North,-999,0.0,4.0,19,0.00,,,-99.99,FreeWX-Wi 1.02,2013-06-05 21:25:00,
2013-06-05 17:30:00,66.6,23.0,30.15,North,-999,0.0,0.0,19,0.00,,,-99.99,FreeWX-Wi 1.02,2013-06-05 21:30:00,
2013-06-05 17:35:00,66.6,23.0,30.15,North,-999,0.0,0.0,19,0.00,,,-99.99,FreeWX-Wi 1.02,2013-06-05 21:35:00,
2013-06-05 17:40:00,66.4,22.8,30.15,North,-999,0.0,0.0,19,0.00,,,-99.99,FreeWX-Wi 1.02,2013-06-05 21:40:00,
2013-06-05 17:45:00,66.4,22.8,30.15,North,-999,0.0,3.6,19,0.00,,,-99.99,FreeWX-Wi 1.02,2013-06-05 21:45:00,
2013-06-05 17:50:00,66.4,22.8,30.15,North,-999,0.0,3.1,19,0.00,,,-99.99,FreeWX-Wi 1.02,2013-06-05 21:50:00,
2013-06-05 17:55:00,66.2,22.6,30.15,North,-999,0.0,3.6,19,0.00,,,-99.99,FreeWX-Wi 1.02,2013-06-05 21:55:00,
2013-06-05 18:00:00,66.2,22.6,30.15,North,-999,0.0,0.0,19,0.00,,,-99.99,FreeWX-Wi 1.02,2013-06-05 22:00:00,
2013-06-05 18:05:00,66.0,22.6,30.15,North,-999,0.0,0.0,19,0.00,,,-99.99,FreeWX-Wi 1.02,2013-06-05 22:05:00,
2013-06-05 18:10:00,66.0,22.6,30.15,North,-999,0.0,0.0,19,0.00,,,-99.99,FreeWX-Wi 1.02,2013-06-05 22:10:00,
2013-06-05 18:16:00,65.8,22.5,30.15,North,-999,0.0,0.0,19,0.00,,,-99.99,FreeWX-Wi 1.02,2013-06-05 22:16:00,
2013-06-05 18:21:00,65.7,22.3,30.15,North,-999,0.0,0.0,19,0.00,,,-99.99,FreeWX-Wi 1.02,2013-06-05 22:21:00,
2013-06-05 18:26:00,65.7,22.3,30.15,North,-999,0.0,0.0,19,0.00,,,-99.99,FreeWX-Wi 1.02,2013-06-05 22:26:00,
2013-06-05 18:31:00,65.5,22.1,30.15,North,-999,0.0,0.0,19,0.00,,,-99.99,FreeWX-Wi 1.02,2013-06-05 22:31:00,
2013-06-05 18:36:00,65.3,21.9,30.15,North,-999,0.0,0.0,19,0.00,,,-99.99,FreeWX-Wi 1.02,2013-06-05 22:36:00,
2013-06-05 18:41:00,65.3,21.9,30.15,North,-999,0.0,0.0,19,0.00,,,-99.99,FreeWX-Wi 1.02,2013-06-05 22:41:00,
2013-06-05 18:46:00,65.1,21.9,30.15,North,-999,0.0,2.7,19,0.00,,,-99.99,FreeWX-Wi 1.02,2013-06-05 22:46:00,
2013-06-05 18:51:00,65.1,21.9,30.15,North,-999,0.0,0.0,19,0.00,,,-99.99,FreeWX-Wi 1.02,2013-06-05 22:51:00,
2013-06-05 18:56:00,65.1,21.9,30.15,North,-999,0.0,0.0,19,0.00,,,-99.99,FreeWX-Wi 1.02,2013-06-05 22:56:00,
2013-06-05 19:01:00,64.8,21.6,30.15,North,-999,0.0,0.0,19,0.00,,,-99.99,FreeWX-Wi 1.02,2013-06-05 23:01:00,
2013-06-05 19:06:00,64.8,21.6,30.15,North,-999,0.0,0.0,19,0.00,,,-99.99,FreeWX-Wi 1.02,2013-06-05 23:06:00,
2013-06-05 19:11:00,64.6,21.4,30.15,North,-999,0.0,0.0,19,0.00,,,-99.99,FreeWX-Wi 1.02,2013-06-05 23:11:00,
2013-06-05 19:16:00,64.4,21.2,30.15,North,-999,0.0,0.0,19,0.00,,,-99.99,FreeWX-Wi 1.02,2013-06-05 23:16:00,
2013-06-05 19:21:00,64.4,21.2,30.15,North,-999,0.0,0.0,19,0.00,,,-99.99,FreeWX-Wi 1.02,2013-06-05 23:21:00,
2013-06-05 19:26:00,64.2,22.3,30.15,North,-999,0.0,0.0,20,0.00,,,-99.99,FreeWX-Wi 1.02,2013-06-05 23:26:00,
2013-06-05 19:31:00,64.0,22.1,30.15,North,-999,0.0,0.0,20,0.00,,,-99.99,FreeWX-Wi 1.02,2013-06-05 23:31:00,
2013-06-05 19:36:00,63.7,21.9,30.15,North,-999,0.0,0.0,20,0.00,,,-99.99,FreeWX-Wi 1.02,2013-06-05 23:36:00,
2013-06-05 19:41:00,63.5,21.7,30.15,North,-999,0.0,0.0,20,0.00,,,-99.99,FreeWX-Wi 1.02,2013-06-05 23:41:00,
2013-06-05 19:46:00,63.3,21.6,30.15,North,-999,0.0,0.0,20,0.00,,,-99.99,FreeWX-Wi 1.02,2013-06-05 23:46:00,
2013-06-05 19:51:00,63.0,22.5,30.15,North,-999,0.0,0.0,21,0.00,,,-99.99,FreeWX-Wi 1.02,2013-06-05 23:51:00,
2013-06-05 19:56:00,62.8,22.3,30.15,North,-999,0.0,0.0,21,0.00,,,-99.99,FreeWX-Wi 1.02,2013-06-05 23:56:00,
2013-06-05 20:01:00,62.4,21.9,30.15,North,-999,0.0,0.0,21,0.00,,,-99.99,FreeWX-Wi 1.02,2013-06-06 00:01:00,
2013-06-05 20:06:00,62.1,21.7,30.15,North,-999,0.0,0.0,21,0.00,,,-99.99,FreeWX-Wi 1.02,2013-06-06 00:06:00,
2013-06-05 20:11:00,61.7,21.4,30.15,North,-999,0.0,0.0,21,0.00,,,-99.99,FreeWX-Wi 1.02,2013-06-06 00:11:00,
2013-06-05 20:16:00,61.3,21.0,30.15,North,-999,0.0,0.0,21,0.00,,,-99.99,FreeWX-Wi 1.02,2013-06-06 00:16:00,
2013-06-05 20:21:00,61.0,23.9,30.15,North,-999,0.0,0.0,24,0.00,,,-99.99,FreeWX-Wi 1.02,2013-06-06 00:21:00,
2013-06-05 20:26:00,60.8,23.7,30.15,North,-999,0.0,0.0,24,0.00,,,-99.99,FreeWX-Wi 1.02,2013-06-06 00:26:00,
2013-06-05 20:31:00,60.4,23.5,30.15,North,-999,0.0,0.0,24,0.00,,,-99.99,FreeWX-Wi 1.02,2013-06-06 00:31:00,
2013-06-05 20:36:00,60.3,26.2,30.15,North,-999,0.0,0.0,27,0.00,,,-99.99,FreeWX-Wi 1.02,2013-06-06 00:36:00,
2013-06-05 20:41:00,60.1,26.1,30.15,North,-999,0.0,0.0,27,0.00,,,-99.99,FreeWX-Wi 1.02,2013-06-06 00:41:00,
2013-06-05 20:46:00,59.7,29.8,30.15,North,-999,0.0,0.0,32,0.00,,,-99.99,FreeWX-Wi 1.02,2013-06-06 00:46:00,
2013-06-05 20:51:00,59.5,31.1,30.15,North,-999,0.0,0.0,34,0.00,,,-99.99,FreeWX-Wi 1.02,2013-06-06 00:51:00,
2013-06-05 20:56:00,59.4,34.3,30.15,North,-999,0.0,0.0,39,0.00,,,-99.99,FreeWX-Wi 1.02,2013-06-06 00:56:00,
2013-06-05 21:01:00,58.8,35.2,30.15,North,-999,0.0,0.0,41,0.00,,,-99.99,FreeWX-Wi 1.02,2013-06-06 01:01:00,
2013-06-05 21:06:00,58.5,35.4,30.15,North,-999,0.0,0.0,42,0.00,,,-99.99,FreeWX-Wi 1.02,2013-06-06 01:06:00,
2013-06-05 21:11:00,58.1,35.1,30.15,North,-999,0.0,0.0,42,0.00,,,-99.99,FreeWX-Wi 1.02,2013-06-06 01:11:00,
2013-06-05 21:16:00,58.1,36.3,30.15,North,-999,0.0,0.0,44,0.00,,,-99.99,FreeWX-Wi 1.02,2013-06-06 01:16:00,
2013-06-05 21:31:00,57.2,38.3,30.15,North,-999,0.0,0.0,49,0.00,,,-99.99,FreeWX-Wi 1.02,2013-06-06 01:31:00,
2013-06-05 21:36:00,57.0,38.5,30.15,North,-999,0.0,0.0,50,0.00,,,-99.99,FreeWX-Wi 1.02,2013-06-06 01:36:00,
2013-06-05 21:42:00,57.0,39.0,30.15,North,-999,0.0,0.0,51,0.00,,,-99.99,FreeWX-Wi 1.02,2013-06-06 01:42:00,
2013-06-05 21:47:00,57.0,39.0,30.15,North,-999,0.0,0.0,51,0.00,,,-99.99,FreeWX-Wi 1.02,2013-06-06 01:47:00,
2013-06-05 21:52:00,56.7,38.7,30.15,North,-999,0.0,0.0,51,0.00,,,-99.99,FreeWX-Wi 1.02,2013-06-06 01:52:00,
2013-06-05 21:57:00,56.3,38.8,30.15,North,-999,0.0,0.0,52,0.00,,,-99.99,FreeWX-Wi 1.02,2013-06-06 01:57:00,
2013-06-05 22:02:00,56.3,38.8,30.18,North,-999,0.0,0.0,52,0.00,,,-99.99,FreeWX-Wi 1.02,2013-06-06 02:02:00,
2013-06-05 22:07:00,56.3,39.4,30.18,North,-999,0.0,0.0,53,0.00,,,-99.99,FreeWX-Wi 1.02,2013-06-06 02:07:00,
2013-06-05 22:12:00,56.1,39.2,30.18,North,-999,0.0,0.0,53,0.00,,,-99.99,FreeWX-Wi 1.02,2013-06-06 02:12:00,
2013-06-05 22:17:00,56.1,39.7,30.18,North,-999,0.0,0.0,54,0.00,,,-99.99,FreeWX-Wi 1.02,2013-06-06 02:17:00,
2013-06-05 22:22:00,55.9,40.5,30.18,North,-999,0.0,0.0,56,0.00,,,-99.99,FreeWX-Wi 1.02,2013-06-06 02:22:00,
2013-06-05 22:27:00,55.8,40.8,30.18,North,-999,0.0,0.0,57,0.00,,,-99.99,FreeWX-Wi 1.02,2013-06-06 02:27:00,
2013-06-05 22:32:00,55.4,40.5,30.18,North,-999,0.0,0.0,57,0.00,,,-99.99,FreeWX-Wi 1.02,2013-06-06 02:32:00,
2013-06-05 22:37:00,55.0,40.1,30.18,North,-999,0.0,0.0,57,0.00,,,-99.99,FreeWX-Wi 1.02,2013-06-06 02:37:00,
2013-06-05 22:42:00,54.9,39.9,30.18,North,-999,0.0,0.0,57,0.00,,,-99.99,FreeWX-Wi 1.02,2013-06-06 02:42:00,
2013-06-05 22:47:00,54.9,41.2,30.18,North,-999,0.0,0.0,60,0.00,,,-99.99,FreeWX-Wi 1.02,2013-06-06 02:47:00,
2013-06-05 22:52:00,54.9,41.2,30.18,North,-999,0.0,0.0,60,0.00,,,-99.99,FreeWX-Wi 1.02,2013-06-06 02:52:00,
2013-06-05 22:57:00,54.9,41.7,30.18,North,-999,0.0,0.0,61,0.00,,,-99.99,FreeWX-Wi 1.02,2013-06-06 02:57:00,
2013-06-05 23:02:00,54.9,41.7,30.18,North,-999,0.0,0.0,61,0.00,,,-99.99,FreeWX-Wi 1.02,2013-06-06 03:02:00,
2013-06-05 23:07:00,54.7,41.9,30.18,North,-999,0.0,0.0,62,0.00,,,-99.99,FreeWX-Wi 1.02,2013-06-06 03:07:00,
2013-06-05 23:12:00,54.5,41.4,30.18,North,-999,0.0,0.0,61,0.00,,,-99.99,FreeWX-Wi 1.02,2013-06-06 03:12:00,
2013-06-05 23:17:00,54.1,41.0,30.18,North,-999,0.0,0.0,61,0.00,,,-99.99,FreeWX-Wi 1.02,2013-06-06 03:17:00,
2013-06-05 23:22:00,54.1,41.0,30.18,North,-999,0.0,0.0,61,0.00,,,-99.99,FreeWX-Wi 1.02,2013-06-06 03:22:00,
2013-06-05 23:27:00,54.1,41.0,30.18,North,-999,0.0,0.0,61,0.00,,,-99.99,FreeWX-Wi 1.02,2013-06-06 03:27:00,
2013-06-05 23:32:00,54.1,41.4,30.15,North,-999,0.0,0.0,62,0.00,,,-99.99,FreeWX-Wi 1.02,2013-06-06 03:32:00,
2013-06-05 23:37:00,54.1,41.4,30.15,North,-999,0.0,0.0,62,0.00,,,-99.99,FreeWX-Wi 1.02,2013-06-06 03:37:00,
2013-06-05 23:42:00,54.3,41.5,30.15,North,-999,0.0,0.0,62,0.00,,,-99.99,FreeWX-Wi 1.02,2013-06-06 03:42:00,
2013-06-05 23:47:00,54.3,41.2,30.18,North,-999,0.0,0.0,61,0.00,,,-99.99,FreeWX-Wi 1.02,2013-06-06 03:47:00,
2013-06-05 23:52:00,54.3,41.2,30.18,North,-999,0.0,0.0,61,0.00,,,-99.99,FreeWX-Wi 1.02,2013-06-06 03:52:00,
2013-06-05 23:57:00,54.1,41.4,30.18,North,-999,0.0,0.0,62,0.00,,,-99.99,FreeWX-Wi 1.02,2013-06-06 03:57:00,